TimePDT,TemperatureF,Dew PointF,Humidity,Sea Level PressureIn,VisibilityMPH,Wind Direction,Wind SpeedMPH,Gust SpeedMPH,PrecipitationIn,Events,Conditions,WindDirDegrees,DateUTC
12:53 AM,54.0,42.1,64,29.88,10.0,NW,3.5,-,N/A,,Clear,320,2013-04-24 07:53:00
1:53 AM,51.1,42.1,71,29.87,10.0,Calm,Calm,-,N/A,,Clear,0,2013-04-24 08:53:00
3:53 AM,48.9,41.0,74,29.84,10.0,East,3.5,-,N/A,,Clear,100,2013-04-24 10:53:00
4:53 AM,48.9,41.0,74,29.85,10.0,NNE,3.5,-,N/A,,Clear,30,2013-04-24 11:53:00
5:53 AM,48.0,41.0,77,29.84,10.0,Calm,Calm,-,N/A,,Clear,0,2013-04-24 12:53:00
6:53 AM,48.9,41.0,74,29.85,10.0,Calm,Calm,-,N/A,,Clear,0,2013-04-24 13:53:00
7:53 AM,51.1,44.1,77,29.87,10.0,Calm,Calm,-,N/A,,Clear,0,2013-04-24 14:53:00
8:53 AM,55.9,45.0,67,29.87,10.0,Calm,Calm,-,N/A,,Clear,0,2013-04-24 15:53:00
9:53 AM,63.0,44.1,50,29.86,10.0,Calm,Calm,-,N/A,,Clear,0,2013-04-24 16:53:00
10:53 AM,71.1,39.0,31,29.86,10.0,West,3.5,-,N/A,,Clear,260,2013-04-24 17:53:00
11:53 AM,73.9,39.9,29,29.85,10.0,Variable,5.8,-,N/A,,Clear,0,2013-04-24 18:53:00
12:53 PM,73.9,45.0,35,29.84,10.0,West,10.4,-,N/A,,Clear,280,2013-04-24 19:53:00
1:53 PM,75.0,44.1,33,29.83,10.0,WNW,12.7,-,N/A,,Clear,300,2013-04-24 20:53:00
2:53 PM,73.9,45.0,35,29.83,10.0,West,12.7,-,N/A,,Clear,280,2013-04-24 21:53:00
3:53 PM,72.0,46.9,41,29.82,10.0,WNW,16.1,-,N/A,,Clear,290,2013-04-24 22:53:00
4:53 PM,68.0,46.9,47,29.82,10.0,WNW,16.1,-,N/A,,Clear,290,2013-04-24 23:53:00
5:53 PM,64.9,48.0,54,29.83,10.0,West,17.3,23.0,N/A,,Clear,280,2013-04-25 00:53:00
6:53 PM,60.1,48.0,64,29.85,10.0,WNW,19.6,23.0,N/A,,Clear,290,2013-04-25 01:53:00
7:53 PM,57.0,48.0,72,29.88,10.0,WNW,16.1,-,N/A,,Clear,290,2013-04-25 02:53:00
8:53 PM,55.0,48.0,77,29.91,10.0,WNW,10.4,-,N/A,,Clear,290,2013-04-25 03:53:00
9:53 PM,53.1,48.0,83,29.93,10.0,West,13.8,-,N/A,,Clear,270,2013-04-25 04:53:00
10:53 PM,53.1,48.0,83,29.94,10.0,West,9.2,-,N/A,,Clear,280,2013-04-25 05:53:00
11:53 PM,53.1,48.9,86,29.94,10.0,WNW,9.2,-,N/A,,Clear,290,2013-04-25 06:53:00